loading
DOY 203 | 2024-07-21T11:17:47Z

STARLINK-11210, 60116

Orbit data source: Space-Track

STARLINK-11210, 60116 is a payload satellite owned by SpaceX/Seattle (US) in LEO that was launched on Mon, 24 Jun 2024 UTC via a Falcon 9 launch vehicle from the Air Force Western Test Range (AFWTR). Payloads include a variety of satellites, spacecraft, and rockets equipped with specific instruments for various scientific and technological missions. These include communications satellites like Starlink; space stations such as the ISS; scientific satellites like the Hubble; Earth observation satellites from companies like Planet Labs, Umbra, and HawkEye 360; GPS; miniature CubeSats for education and research; and military/defense satellites.

Next visibility unknown
Loading greatness...
STARLINK-11210 details
NORAD ID60116
COSPAR ID
2024-118D
Orbit
LEO
Last TLE update22 hours ago
Origin
Flag of USSpaceX/Seattle (US)
ManufacturerSpaceX/Seattle
BusStarlink V2M
MotorUnknown
Mass750 kg wet, ~700 kg dry
Launch date (UTC)
2024-06-24 (1 month ago)
Launch vehicle
Falcon 9
Launch site
Air Force Western Test Range (AFWTR)
Object type
Payload
Rocket body
Debris
Radar Cross SectionLarge (>1 m²)
Predictive object data (real-time)
Latitude-53.03337°
Longitude52.45195°
Altitude357.535 km
Speed7.694 km/s
Apparent Right ascension12h 16m 57s
Apparent Declination-46° 28' 13"
Sunlit
Object is in daylight
Predictive observer data (real-time)
Local Sidereal Time00:16:11
Azimuth181.154° SSW
Elevation-83.444°
Doppler factor1
Orbital elements
Apogee341.062 km
Perigee338.802 km
Semi-major axis6,718.069 km
Eccentricity0.0001682
Inclination53.1547°
RAAN287.2301°
Arg. of periapsis8.2638°
True anomaly351.83826°
Mean anomaly351.841°
Mean motion3.94164 °/min
BSTAR0.00093467
Period91.33 mins
Definitive object data (Epoch: 2024-07-20T12:52:53.125Z)
Latitude-0.00005°
Longitude155.21194°
Altitude339.469 km
Speed7.707 km/s
True Right ascension19h 08m 55s
True Declination0° 00' 00"
Sunlit
Object was in full shadow at TLE epoch
TLE from 22 hours ago
0 STARLINK-11210
1 60116U 24118D   24202.53672599  .00155255  00000-0  93467-3 0  9991
2 60116  53.1547 287.2301 0001682   8.2638 351.8410 15.76745046  5055
Epoch: 2024-07-20T12:52Z
No data available

STARLINK-11210 Visibility forecast

Observer location: 39.9160978°, -105.1181434

STARLINK-11210 is not visible in the next 10 days
Span
Click to sort rows by Start time (UTC) header in descending order
Start Az.
Max El. time (UTC)
Max El. Az.
Max El.
End time (UTC)
End Az.